Regional Weather Roundup
Issued by NWS

Home | Current Version | Previous Version | Graphics & Text | Print | Product List | Glossary On
Versions: 1 2 3 4 5 6 7 8 9 10 11 12 13 14 15 16 17 18 19 20 21 22 23 24 25 26 27 28 29 30 31 32 33 34 35 36 37 38 39 40 41 42 43 44 45 46 47 48 49 50
000
ASUS45 KSLC 201810
RWRUT

UTAH REGIONAL WEATHER ROUNDUP
NATIONAL WEATHER SERVICE SALT LAKE CITY UT
1100 AM MST MON FEB 20 2017

UTZ001>011-023>025-201900-

NORTHERN UTAH

CITY           SKY/WX    TMP DP  RH WIND       PRES   REMARKS
BRIGHAM CITY     N/A     47  36  65 S10       30.06R
HILL AFB       CLOUDY    48  33  56 S20G29    30.04S
LOGAN          CLOUDY    49  35  58 SW18      30.02R
OGDEN          CLOUDY    49  35  58 S20G25    30.04S
SALT LAKE CITY CLOUDY    51  33  50 S30G39    30.03S
TOOELE VALLEY  PTSUNNY   52  36  54 S32G43    30.02F
WENDOVER       CLOUDY    50  39  66 SE17      29.99F
HEBER CITY     CLOUDY    46  30  53 S6        30.11R
WEST JORDAN    CLOUDY    53  42  67 S24G31    30.08F

$$

UTZ011>015-024>027-201900-

CENTRAL/NORTHEAST UTAH

CITY           SKY/WX    TMP DP  RH WIND       PRES   REMARKS
PROVO AIRPORT  CLOUDY    50  34  54 SE12      30.14R
MOAB/CANYONLAN MOSUNNY   48  43  82 E6        30.20R
DELTA          CLOUDY    50  36  57 S25       30.13F
PRICE          CLOUDY    36  36 100 CALM      30.22R
ROOSEVELT      CLOUDY    37  34  87 SE3       30.21R
VERNAL         CLOUDY    35  33  92 SE5       30.19R WCI  31

$$

UTZ013>016-019>022-027-201900-

SOUTHERN UTAH

CITY           SKY/WX    TMP DP  RH WIND       PRES   REMARKS
BRYCE CANYON   CLOUDY    33  28  81 SE13      30.24R WCI  24
CEDAR CITY     MOSUNNY   49  37  63 SW16G25   30.16F
MILFORD        PTSUNNY   47  38  71 SW20      30.16R
ST GEORGE      CLOUDY    50  45  83 CALM      30.24R
HANKSVILLE     CLOUDY    37  37 100 E3        30.24S
BLANDING       PTSUNNY   43  35  73 CALM      30.33R

$$

REGIONAL REPORTS     COLORADO/ARIZONA

CITY           SKY/WX    TMP DP  RH WIND       PRES   REMARKS
CRAIG, CO      CLOUDY    32  29  88 E6        30.17S WCI  26
GRAND JUNCTION SUNNY     50  37  61 SE18      30.21R
RIFLE, CO      CLOUDY    44  35  70 NW5       30.22R
MONTROSE, CO   SUNNY     47  30  51 CALM      30.25R
CORTEZ, CO     PTSUNNY   45  37  73 W7        30.26R
COLORADO CITY  CLOUDY    48  41  76 S8        30.29R
PAGE, AZ       PTSUNNY   48  34  58 N3        30.25R
GRAND CANYON   CLOUDY    38  35  89 S7        30.30R WCI  33
KINGMAN, AZ    CLOUDY    51  37  58 CALM      30.27R
FLAGSTAFF, AZ  CLOUDY    39  33  79 W5        30.31R

$$

REGIONAL REPORTS    NEVADA/IDAHO/WYOMING

CITY           SKY/WX    TMP DP  RH WIND       PRES   REMARKS
LAS VEGAS, NV  PTSUNNY   60  44  55 S9        30.16R
ELY, NY        CLOUDY    41  33  73 SE24G35   30.06F
ELKO, NV       CLOUDY    47  34  60 S18G25    29.95S
POCATELLO, ID  CLOUDY    45  36  70 S28G39    29.92R
BURLEY, ID     CLOUDY    49  34  56 SW23G33   29.87S
FORT BRIDGER,  CLEAR     41  30  65 SW9       30.08R
EVANSTON, WY   CLOUDY    36  28  73 S10       30.05R WCI  28
ROCK SPRINGS,  SUNNY     38  28  67 W6        30.06R WCI  33
KEMMERER, WY     N/A     39  28  65 SW10G20   30.05R WCI  32

$$



USA.gov is the U.S. government's official web portal to all federal, state and local government web resources and services.